AirNav   Pilot Hours Calculator
 
 575 users online  

2E2 Sharpe's Strip Airport
Emmett, Michigan, USA

GOING TO EMMETT?


FAA INFORMATION EFFECTIVE 28 FEBRUARY 2019

Location

FAA Identifier: 2E2
Lat/Long: 42-57-05.8000N / 082-46-33.3000W
42-57.096667N / 082-46.555000W
42.9516111 / -82.7759167
(estimated)
Elevation: 781 ft. / 238 m (estimated)
From city: 2 miles S of EMMETT, MI
Time zone: UTC -5 (UTC -4 during Daylight Saving Time)
Zip code: 48041

Airport Operations

Airport use: Open to the public
Activation date: 11/2003
Control tower: no
ARTCC: CLEVELAND CENTER
FSS: LANSING FLIGHT SERVICE STATION
NOTAMs facility: LAN (NOTAM-D service available)
Attendance: IREG
Wind indicator: yes
Segmented circle: no

Airport Communications

CTAF: 122.9
WX AWOS-3 at PHN (11 nm E): 118.375 (810-364-7787)

Nearby radio navigation aids

NDB name  Hdg/Dist  Freq  Var  ID
PHURN317/10.233207WPH .--. ....

Airport Services

Runway Information

Runway 18/36

Dimensions: 2700 x 90 ft. / 823 x 27 m
Surface: turf, in good condition
Runway edge markings: RY 36 & DSPLCD THLD MKD WITH YELLOW CONES.
RUNWAY 18  RUNWAY 36
Latitude: 42-57.319333N42-56.875000N
Longitude: 082-46.566167W082-46.544500W
Traffic pattern: leftleft
Displaced threshold: 700 ft.no
Obstructions: 33 ft. pline, marked, 75 ft. from runway, 2:1 slope to clear
APCH RATIO 0:1 TO DSPLCD THLD, +25' TREES 0 FT DSTC, 96' RIGHT.
25 ft. trees, 60 ft. left of centerline

Airport Ownership and Management from official FAA records

Ownership: Privately-owned
Owner: VERNON SHARPE
11371 HILL ROAD
RILEY, MI 48041
Phone 810-384-6668
Manager: VERNON SHARPE
11371 HILL ROAD
RILEY, MI 48041
Phone 810-384-6668

Airport Operational Statistics

Aircraft based on the field: 1
Single engine airplanes: 1
    
Aircraft operations: 100/year *
50% transient general aviation
50% local general aviation
* for 12-month period ending 31 December 2014

Additional Remarks

DEER & TURKEYS INVOF ARPT.
FOR IFR CLEARANCE CTC CLEVELAND ARTCC (ZOB) 126.52/285.52 OR CALL ZOB 440-774-0224.

Instrument Procedures

There are no published instrument procedures at 2E2.

Some nearby airports with instrument procedures:

KPHN - St Clair County International Airport (11 nm E)
D98 - Romeo State Airport (13 nm SW)
57D - Ray Community Airport (14 nm S)
KMTC - Selfridge Air National Guard Base (20 nm S)
D95 - Dupont-Lapeer Airport (23 nm W)
 
Loc | Ops | Rwys | IFR | FBO | Links
Com | Nav | Svcs | Stats | Notes
Area around 2E2 (Sharpe's Strip Airport)
 
Road maps at: MapQuest Bing Google
 
Aerial photo
WARNING: Photo may not be current or correct
Aerial photo of 2E2 (Sharpe's Strip Airport)
Photo by Vic Adamko
Taken in the Summer of 2004

Do you have a better or more recent aerial photo of Sharpe's Strip Airport that you would like to share? If so, please send us your photo.

 
Sectional chart

 
Airport distance calculator
Flying to Sharpe's Strip Airport? Find the distance to fly.

From to 2E2

Sunrise and sunset
Times for 26-Mar-2019
 Local
(UTC-4)
 Zulu
(UTC)
Morning civil twilight06:5610:56
Sunrise07:2511:25
Sunset19:4923:49
Evening civil twilight20:1700:17

Current date and time
Zulu (UTC)  26-Mar-2019 04:24:24
Local (UTC-4)  26-Mar-2019 00:24:24
 
METAR
KPHN 
12nm E 
260355Z AUTO 00000KT 10SM CLR M04/M08 A3032 RMK AO2
KMTC 
20nm S 
260356Z AUTO 33004KT 10SM CLR M03/M10 A3031 RMK AO2 SLP276 T10271096 $
CYZR 
21nm E 
260300Z AUTO 35002KT 9SM CLR M03/M09 A3030 RMK SLP272
KD95 
23nm W 
260355Z AUTO 00000KT 10SM CLR M03/M06 A3032 RMK AO2 T10291061
TAF
KMTC 
20nm S 
260108Z 2601/2707 03006KT 9999 FEW200 QNH3023INS WND 16006KT AFT 2700 TX05/2621Z TNM03/2603Z LAST NO AMDS AFT 2603 NEXT 2609
CYZR 
21nm E 
251938Z 2520/2602 36010G20KT P6SM SKC RMK FCST BASED ON AUTO OBS. NXT FCST WILL BE ISSUED AT 260745Z
NOTAMs
Click for the latest NOTAMs
NOTAMs are issued by the DoD/FAA and will open in a separate window not controlled by AirNav.

 

 
 

Would you like to see your business listed on this page?

 If your business provides an interesting product or service to pilots, flight crews, aircraft, or users of the Sharpe's Strip Airport, you should consider listing it here.  To start the listing process, click on the button below
 
Add a business
 

Other Pages about Sharpe's Strip Airport

Page from the Michigan Airport Directory (PDF)
 
Update a link
 
Copyright © AirNav, LLC. All rights reserved. Privacy Policy  Contact